CST,Max TemperatureF,Mean TemperatureF,Min TemperatureF,Max Dew PointF,MeanDew PointF,Min DewpointF,Max Humidity, Mean Humidity, Min Humidity, Max Sea Level PressureIn, Mean Sea Level PressureIn, Min Sea Level PressureIn, Max VisibilityMiles, Mean VisibilityMiles, Min VisibilityMiles, Max Wind SpeedMPH, Mean Wind SpeedMPH, Max Gust SpeedMPH,PrecipitationIn, CloudCover, Events, WindDirDegrees
2012-11-1,86,72,57,68,59,45,100,62,23,30.08,30.02,29.95,10,6,0,10,3,17,0.00,2,Fog,218
2012-11-2,85,73,60,67,62,57,100,70,40,30.06,30.00,29.93,10,6,0,17,6,23,0.00,2,Fog,199
2012-11-3,82,72,61,69,64,60,100,84,67,30.08,30.04,30.00,10,9,1,20,5,25,0.04,3,Rain-Thunderstorm,161
2012-11-4,82,70,58,66,61,57,100,79,58,30.12,30.07,30.01,10,6,0,9,2,14,0.00,2,Fog,15
2012-11-5,86,72,58,65,57,44,97,71,44,30.06,30.02,29.93,10,7,1,18,6,24,0.00,2,,336
2012-11-6,74,62,49,47,43,40,72,54,35,30.17,30.11,30.07,10,10,10,12,3,18,0.00,0,,329
2012-11-7,82,65,48,47,42,36,86,53,20,30.18,30.11,30.06,10,10,10,8,2,20,0.00,0,,91
2012-11-8,83,69,54,59,54,43,86,65,43,30.17,30.09,30.02,10,10,10,22,9,28,0.00,0,,150
2012-11-9,85,74,63,64,60,51,93,64,34,30.11,30.05,29.98,10,10,10,24,13,31,0.00,2,,164
2012-11-10,83,74,64,67,62,59,87,67,46,30.05,29.98,29.90,10,10,10,24,14,33,0.00,2,,158
2012-11-11,83,70,56,69,62,52,90,71,51,30.18,29.95,29.87,10,9,3,25,13,33,0.36,7,Rain-Thunderstorm,160
2012-11-12,63,54,45,53,37,29,93,62,30,30.48,30.38,30.20,10,10,10,20,11,24,0.00,2,,7
2012-11-13,61,51,41,39,31,26,65,46,27,30.50,30.41,30.34,10,10,10,16,7,21,0.01,3,Rain-Thunderstorm,41
2012-11-14,65,55,45,38,34,28,70,48,26,30.43,30.35,30.28,10,10,10,12,5,23,0.00,2,,36
2012-11-15,68,53,38,38,34,32,79,53,27,30.33,30.28,30.21,10,10,10,9,4,14,0.00,3,,64
2012-11-16,67,56,44,37,31,24,62,41,20,30.40,30.33,30.28,10,10,10,15,7,20,0.00,2,,45
2012-11-17,70,54,37,37,33,28,76,50,23,30.40,30.33,30.28,10,10,10,8,2,17,0.00,0,,76
2012-11-18,74,59,43,46,39,36,82,54,25,30.33,30.26,30.20,10,10,10,15,4,21,0.00,0,,131
2012-11-19,76,64,51,51,47,44,77,58,38,30.27,30.21,30.14,10,10,10,12,5,15,0.00,1,,153
2012-11-20,79,66,52,58,55,51,93,71,48,30.23,30.17,30.12,10,10,5,10,2,14,0.00,0,,182
2012-11-21,81,66,51,59,51,44,100,64,28,30.27,30.20,30.15,10,10,6,9,2,20,0.00,0,,141
2012-11-22,78,65,52,58,53,49,93,66,39,30.19,30.13,30.06,10,9,2,21,7,26,0.00,0,,170
2012-11-23,74,65,55,61,51,27,93,63,33,30.37,30.25,30.14,10,10,7,22,9,26,0.00,4,,1
2012-11-24,64,53,41,30,26,21,55,38,20,30.41,30.30,30.16,10,10,10,14,5,21,0.00,0,,26
2012-11-25,76,60,44,61,45,30,81,60,38,30.14,30.03,29.94,10,10,10,20,10,26,0.00,1,,174
2012-11-26,84,72,59,64,60,49,93,70,47,30.15,29.98,29.91,10,10,8,31,9,44,0.11,5,Rain-Thunderstorm,193
2012-11-27,59,50,41,46,40,37,89,72,54,30.37,30.30,30.16,10,10,10,22,10,29,T,4,,342
2012-11-28,68,54,39,44,39,36,92,63,34,30.46,30.36,30.29,10,10,7,10,4,13,0.00,0,,103
2012-11-29,73,57,40,55,45,37,100,75,49,30.30,30.23,30.14,10,8,0,14,5,17,0.00,2,Fog,123
2012-11-30,79,68,57,66,61,55,100,76,51,30.19,30.14,30.05,10,8,2,12,5,15,0.02,6,Rain,151